Weather in Lazarevo

Russia / Krasnoyarsk Krai     56°26′29″N   89°26′30″E
temp.,
°C
wind,
m/s
gust,
m/s
humid.,
%
clouds,
%
prec.,
mm/h
press.,
hPa
HPBL,
m
17 june, thu
thu1701:00+13s349686 0.9 101177
04:00+12s36955 0.0 101195
07:00+16ssw399410 0.1 1010286
10:00+21sw46755 0.2 1010635
13:00+23sw47695 0.6 10081435
16:00+22wsw477959 2.4 1007806
19:00+20sw258621 4.4 1007365
22:00+16sw22955 0.9 100730
18 june, fri
fri1801:00+14ssw339631 0.9 100659
04:00+13sw359710 0.0 1007100
07:00+15w369523 0.0 1007224
10:00+20wnw346312 0.1 1007752
13:00+23sw3548100 0.1 10061870
16:00+22wsw455799 0.0 10051205
19:00+22wsw136796 0.0 1004210
22:00+17w118063 0.2 100411
19 june, sat
sat1901:00+14s118989 0.2 100310
04:00+13ssw229238 0.0 100315
07:00+17sw23875 0.0 1003173
10:00+22wsw237078 0.0 1002717
13:00+24wnw246689 0.5 10011165
16:00+28wnw254876 0.3 10002348
19:00+23ne247482 0.4 1000101
22:00+18ese35870 0.2 100067
20 june, sun
sun2001:00+16ese22935 0.4 100118
04:00+15e339454 0.0 100040
07:00+18ese248949 0.0 1002160
10:00+24se33675 0.0 1002685
13:00+26s22575 0.0 10021124
16:00+27s225522 0.1 1002791
19:00+23w61278100 0.8 1003440
22:00+17w4129595 2.6 1008504
21 june, mon
mon2101:00+15w51393100 4.4 1009386
04:00+11w3119545 0.0 1010259
07:00+13wnw3990100 0.0 1012314
10:00+18nnw4653100 0.0 1011897
13:00+20nw454398 0.0 10111464
16:00+20nw4648100 0.0 10101392
19:00+17nw61058100 0.0 1010650
22:00+14nw61263100 0.0 1010701